Hourly Weather Roundup
Issued by NWS Central Illinois

Home | Current Version | Previous Version | Text Only | Print | Product List | Glossary On
Versions: 1 2 3 4 5 6 7 8 9 10 11 12 13 14 15 16 17 18 19 20 21 22 23 24 25 26 27 28 29 30 31 32 33 34 35 36 37 38 39 40 41 42 43 44 45 46 47 48 49 50
000
NZUS43 KILX 171310
HWRILX

AREA WEATHER ROUNDUP
NATIONAL WEATHER SERVICE, LINCOLN IL
800 AM CDT THU APR 17 2014


CITY           SKY/WX    TMP DP  RH WIND       PRES   REMARKS
BLOOMINGTON    SUNNY     43  31  63 S14       30.18R
CHAMPAIGN      SUNNY     45  32  60 S15       30.20R
DANVILLE       SUNNY     46  29  52 S13G21    30.20R
DECATUR        SUNNY     46  32  58 S12       30.20R
FLORA          NOT AVBL
GALESBURG      CLOUDY    43  38  82 W14       30.17R
JACKSONVILLE   SUNNY     47  32  55 SW9       30.20R
LACON          MOSUNNY   46  32  57 SW10      30.16R
LAWRENCEVILLE  SUNNY     46  34  62 S9        30.29R
LITCHFIELD     PTSUNNY   41  34  74 CALM      30.21R
$$


CITY           SKY/WX    TMP DP  RH WIND       PRES   REMARKS
LINCOLN        SUNNY     46  33  61 S5        30.20R
MACOMB         PTSUNNY   44  37  77 W13       30.20R
MATTOON        SUNNY     45  32  60 S10       30.22R
MT CARMEL AP   SUNNY     50  34  53 S9        30.27R
OLNEY-NOBLE AP SUNNY     45  34  65 CALM      30.27R
PARIS          SUNNY     46  33  59 S10       30.25R
PEORIA         MOSUNNY   46  32  58 SW12      30.17R
PONTIAC        SUNNY     45  34  65 S10       30.17R
RANTOUL        SUNNY     43  33  68 CALM      30.21R
ROBINSON       SUNNY     47  37  67 S7        30.28R
SPRINGFIELD    SUNNY     47  31  53 SW12      30.19R
TAYLORVILLE    MOSUNNY   45  32  61 S14       30.20R
$$

...REGIONAL REPORTS...


CITY           SKY/WX    TMP DP  RH WIND       PRES   REMARKS
CHICAGO O`HARE MOSUNNY   45  27  49 S16       30.14R
KANKAKEE       MOSUNNY   44  31  60 S16G22    30.19R
MOLINE         CLOUDY    41  33  73 W16       30.16R WCI  33
MOUNT VERNON   SUNNY     45  28  53 S3        30.27R
PITTSFIELD     MOSUNNY   49  32  52 W6        30.19R
QUINCY         PTSUNNY   44  36  73 NW12      30.19R
ROCKFORD       CLOUDY    44  31  60 S14       30.12R
$$


CITY           SKY/WX    TMP DP  RH WIND       PRES   REMARKS
BURLINGTON     CLOUDY    41  35  79 NW7G17    30.18R
CEDAR RAPIDS   CLOUDY    36  29  75 W17       30.16R WCI  26
DES MOINES     CLOUDY    36  27  69 NW16      30.24R WCI  26
KIRKSVILLE     CLOUDY    40  33  76 NW8       30.22R WCI  34
OTTUMWA        CLOUDY    36  31  82 NW15      30.18F WCI  27
ST LOUIS       PTSUNNY   50  31  48 SW6       30.21R
$$


CITY           SKY/WX    TMP DP  RH WIND       PRES   REMARKS
TERRE HAUTE    SUNNY     47  30  51 S7        30.26R
EVANSVILLE     SUNNY     50  34  54 S9        30.31R
INDIANAPOLIS   PTSUNNY   43  26  51 S8        30.27R
LAFAYETTE      MOSUNNY   45  26  47 S8G17     30.24R
MADISON        CLOUDY    44  32  62 S7        30.04R
MILWAUKEE      PTSUNNY   41  31  67 S13       30.10S WCI  34
$$




USA.gov is the U.S. government's official web portal to all federal, state and local government web resources and services.